Location: New Canada
(47.1017°N, 68.5042°W)
Time: 16:55:23
(UTC+00:00)

KKS-1 - Pass Details

Date: 28 April 2024
Orbit: 628 x 639 km, 98.1° (Epoch: 21 May)

Event Time Altitude Azimuth Distance (km) Brightness Sun altitude
Rises 05:30:13 0° 357° (N) 2,958 ? -27.2°
Reaches altitude 10° 05:33:29 10° 331° (NNW) 2,042 ? -27.0°
Maximum altitude 05:35:35 13° 302° (WNW) 1,822 ? -26.9°
Enters shadow 05:36:09 13° 294° (WNW) 1,838 ? -26.9°
